User: anonymous   Login
Location: Montr�al
(45.5000°N, 73.5830°W)
Time: 01:11:36
(UTC-05:00)
Language:

Cosmos 2369 - Orbit

View from above orbital plane
View from above orbital plane
View from above satellite
View from above satellite

Ground track
Ground track

The orbit data is extracted from the following two-line orbital elements,

1 26069U 00006A   17350.53800315 -.00000264 +00000-0 -11540-3 0  9998
2 26069 070.9949 337.0636 0013725 305.1881 054.7955 14.13359236185236
Epoch (UTC): 16 December 2017 12:54:43
Eccentricity: 0.0013725
inclination: 70.9949°
perigee height: 838 km
apogee height: 858 km
right ascension of ascending node: 337.0636°
argument of perigee: 305.1881°
revolutions per day: 14.13359236
mean anomaly at epoch: 54.7955°
orbit number at epoch: 18523

The dashed part of the orbit path shows where the satellite is in the earth's shadow,  

DLR